Kosmos-2451

operational
NORAD ID: 35498 Int'l Des: 2009-036 Owner: KVR Country: RU
LEOCIRCULARPOLAR

Über Kosmos-2451

Beschreibung wird geladen...

Live-Position

3D-Globus wird geladen...

Nächste Überflüge

Höhenverlauf

Altitude vs Time

uPlot chart will show altitude changes over time

Zweizeiliger Elementsatz

1 35498U 09036A 26062.22784162 -.00000004 00000-0 -10017-3 0 9993
2 35498 82.4923 158.1065 0007828 84.9119 275.2853 12.40867819754501
Epoch: 3. März 2026 • Age: 33 hours

Aktueller Status

Höhe 1506.8 km
Geschwindigkeit 7.12 km/s
Subsatellitenpunkt 57.16°N, 126.05°W
Startdatum 6. Juli 2009
Alter 16.6 years
Typ other

Technische Details

Klassifizierung Payload
Masse 225.00 kg
Trockenmasse 225.00 kg
Gesamtmasse 225.00 kg
Länge 1.60 m
Durchmesser 0.80 m
Spannweite 7.00 m
Form Cyl + Ant
Hersteller RESH
Bus-Typ Strela-3
Phasenstatus In Orbit
Besitzer/Staat KVR/RU

Große Konstellationen

Loading constellations...